Home   Weather   San Marino   Past weeks

Flag for San Marino Past Weather in San Marino, San Marino — Yesterday and Last 2 Weeks

Now
32 °F

Ice fog.


Feels Like: 32 °F
Forecast: 36 / 45 °F
Wind: 1 mph from West

Location: Rimini Airport

Current Time: Dec 9, 2016 at 3:14:15 am

Latest Report: Dec 9, 2016 at 2:15 am


Visibility: 2 mi

Pressure: 30.54 "Hg (28.10 "Hg at 666m altitude)

Humidity: 100%

Dew Point: 32 °F

Location of San MarinoLocation

Past Weather in San Marino — Graph

°F

San Marino Temperature Yesterday

Maximum temperature yesterday: 48 °F (at 11:45 am)
Minimum temperature yesterday: 30 °F (at 6:45 am)
Average temperature yesterday: 39 °F

High & Low Weather Summary for the Past Weeks

 TemperatureHumidityPressure
High63 °F (Nov 25, 12:15 pm)100% (Nov 24, 1:15 am)30.66 "Hg (Nov 24, 1:15 am)
Low30 °F (Dec 8, 6:45 am)35% (Nov 30, 2:15 pm)29.86 "Hg (Nov 27, 4:45 pm)
Average47 °F82%30.22 "Hg
* Reported Nov 24 1:15 am — Dec 9 1:45 am, San Marino, Weather by CustomWeather, © 2016

Note: Actual official high and low records may vary slightly from our data, if they occured in-between our weather recording intervals... More about our weather records

Advertising

San Marino Weather History for the Previous 24 Hours

Scroll right to see more
 ConditionsComfort  
Time TempWeatherWind HumidityBarometerVisibility
1:45 am
Fri, Dec 9
32 °FIce fog.No wind100%30.54 "Hg2 mi
1:15 am34 °FFog.2 mph93%30.57 "Hg2 mi
12:15 am36 °FFog.6 mph93%30.57 "Hg2 mi
11:45 pm
Thu, Dec 8
34 °FFog.5 mph93%30.57 "Hg2 mi
11:15 pm36 °FFog.5 mph93%30.57 "Hg2 mi
10:45 pm36 °FFog.1 mph93%30.57 "Hg2 mi
10:15 pm34 °FFog.2 mph93%30.57 "Hg2 mi
9:45 pm36 °FFog.2 mph93%30.57 "Hg2 mi
9:15 pm37 °FFog.No wind93%30.57 "Hg2 mi
8:45 pm37 °FFog.1 mph93%30.57 "Hg2 mi
8:15 pm37 °FFog.3 mph87%30.60 "Hg2 mi
7:45 pm37 °FFog.3 mph93%30.60 "Hg2 mi
7:15 pm39 °FFog.5 mph93%30.60 "Hg2 mi
6:45 pm39 °FFog.3 mph93%30.60 "Hg2 mi
6:15 pm41 °FFog.No wind87%30.57 "Hg2 mi
5:45 pm43 °FFog.No wind81%30.57 "Hg2 mi
5:15 pm43 °FFog.No wind81%30.57 "Hg2 mi
4:45 pm45 °FFog.No wind81%30.57 "Hg2 mi
4:15 pm45 °FFog.No wind76%30.57 "Hg2 mi
3:45 pm46 °FFog.1 mph76%30.57 "Hg3 mi
3:15 pm46 °FFog.2 mph76%30.57 "Hg3 mi
2:45 pm48 °FFog.1 mph71%30.60 "Hg3 mi
2:15 pm48 °FFog.5 mph71%30.60 "Hg3 mi
1:45 pm48 °FFog.5 mph66%30.60 "Hg3 mi
1:15 pm48 °FClear.3 mph66%30.63 "Hg4 mi
12:45 pm48 °FClear.5 mph66%30.60 "Hg4 mi
12:15 pm48 °FClear.1 mph62%30.63 "Hg4 mi
11:45 am48 °FClear.2 mph62%30.63 "Hg4 mi
11:15 am45 °FClear.5 mph71%30.66 "Hg4 mi
10:45 am43 °FClear.No wind76%30.66 "Hg4 mi
10:15 am41 °FClear.No wind76%30.66 "Hg4 mi
9:45 am37 °FClear.No wind87%30.66 "Hg4 mi
9:15 am34 °FClear.No wind93%30.63 "Hg4 mi
8:45 am32 °FClear.1 mph93%30.63 "Hg4 mi
8:15 am30 °FIce fog.1 mph93%30.63 "Hg3 mi
7:45 am30 °FIce fog.No wind100%30.63 "Hg2 mi
7:15 am30 °FIce fog.1 mph100%30.63 "Hg2 mi
6:45 am30 °FFog.No wind100%30.63 "Hg1 mi
6:15 am32 °FFog.No wind93%30.63 "Hg1 mi
5:45 am32 °FFog.1 mph93%30.63 "Hg0 mi
5:15 am32 °FFog.1 mph93%30.63 "Hg0 mi
4:45 am32 °FFog.No wind93%30.63 "Hg0 mi
4:15 am32 °FFog.No wind93%30.63 "Hg0 mi
3:45 am32 °FFog.No wind100%30.63 "Hg0 mi
3:15 am34 °FFog.No wind93%30.63 "Hg0 mi
Weather by CustomWeather, © 2016

See weather overviewHow to use our weather pages